Home   Weather   London   Past weeks
Flag for United Kingdom

Past Weather in London, England, United Kingdom — Yesterday and Last 2 Weeks

Now
59 °F

Clear.


Feels Like: 60 °F
Forecast: 75 / 62 °F
Wind: 3 mph from Southwest

Location: Northolt

Current Time: Jul 17, 2019 at 3:56:12 am

Latest Report: Jul 17, 2019 at 2:50 am


Visibility: N/A

Pressure: 30.01 "Hg

Humidity: 82%

Dew Point: 54 °F

Location of LondonLocation

Past Weather in London — Graph

°F

London Temperature Yesterday

Maximum temperature yesterday: 81 °F (at 5:22 pm)
Minimum temperature yesterday: 50 °F (at 5:50 am)
Average temperature yesterday: 69 °F

High & Low Weather Summary for the Past Weeks

 TemperatureHumidityPressure
High81 °F (Jul 16, 5:22 pm)94% (Jul 2, 5:50 am)30.33 "Hg (Jul 2, 5:50 am)
Low50 °F (Jul 2, 3:50 am)32% (Jul 5, 3:20 pm)29.86 "Hg (Jul 11, 4:23 pm)
Average67 °F61%30.11 "Hg
* Reported Jul 2 1:50 am — Jul 17 1:50 am, London. Weather by CustomWeather, © 2019

Note: Actual official high and low records may vary slightly from our data, if they occured in-between our weather recording intervals... More about our weather records

Advertising

London Weather History for the Previous 24 Hours

Scroll right to see more
 ConditionsComfort  
Time TempWeatherWind HumidityBarometerVisibility
1:50 am
Wed, Jul 17
61 °FClear.3 mph77%30.04 "HgN/A
12:50 am61 °FClear.2 mph83%30.04 "HgN/A
11:50 pm
Tue, Jul 16
63 °FClear.5 mph77%30.04 "HgN/A
10:50 pm64 °FClear.6 mph73%30.04 "HgN/A
9:50 pm68 °FClear.7 mph64%30.04 "HgN/A
9:20 pm70 °FClear.7 mph60%30.04 "Hg10 mi
8:50 pm72 °FSunny.12 mph57%30.04 "Hg10 mi
8:20 pm72 °FSunny.13 mph57%30.01 "Hg10 mi
7:50 pm75 °FSunny.12 mph47%30.01 "Hg10 mi
7:21 pm77 °FSunny.8 mph36%30.01 "Hg10 mi
6:50 pm79 °FSunny.6 mph34%30.01 "Hg10 mi
6:21 pm79 °FSunny.5 mph34%30.01 "Hg10 mi
5:50 pm79 °FSunny.3 mph34%30.04 "Hg10 mi
5:22 pm81 °FSunny.3 mph32%30.04 "Hg10 mi
4:50 pm77 °FSunny.3 mph34%30.04 "Hg10 mi
4:20 pm75 °FSunny.1 mph36%30.04 "Hg10 mi
3:50 pm75 °FSunny.6 mph39%30.04 "Hg10 mi
3:20 pm79 °FSunny.5 mph32%30.07 "Hg10 mi
2:50 pm79 °FSunny.5 mph34%30.07 "Hg10 mi
2:20 pm79 °FSunny.7 mph34%30.07 "Hg10 mi
1:50 pm77 °FSunny.3 mph36%30.07 "Hg10 mi
1:20 pm79 °FSunny.7 mph37%30.07 "Hg10 mi
12:50 pm75 °FSunny.2 mph41%30.09 "Hg10 mi
12:20 pm75 °FSunny.5 mph41%30.09 "Hg10 mi
11:50 am73 °FPassing clouds.3 mph44%30.09 "HgN/A
10:50 am72 °FPassing clouds.3 mph50%30.09 "HgN/A
10:20 am70 °FPassing clouds.2 mph53%30.09 "HgN/A
9:50 am68 °FSunny.2 mph56%30.12 "Hg10 mi
9:20 am66 °FSunny.3 mph64%30.12 "Hg10 mi
8:50 am64 °FSunny.7 mph68%30.12 "Hg10 mi
8:20 am63 °FSunny.8 mph68%30.12 "Hg10 mi
7:50 am59 °FSunny.6 mph77%30.12 "Hg10 mi
7:20 am55 °FSunny.5 mph88%30.12 "Hg10 mi
6:50 am55 °FSunny.2 mph88%30.12 "Hg10 mi
5:50 am50 °FSunny.1 mph94%30.12 "HgN/A
4:50 am52 °FClear.1 mph88%30.12 "HgN/A
3:50 am54 °FClear.2 mph88%30.12 "HgN/A
Weather by CustomWeather, © 2019

See weather overview